Vertical_Velocity
2 3 4 3 2 1 1 1 0 0 1 1 1 1 0 -0 -1 -2 -3 -3 -2 -1 0 0 0 -0 -0 -0 -1 -1 -1 1 1 1 1 1 1 0 -1 -2 -1 -0 -1 -0 0 1 2 2 1 1 1 0 -1 -1 -1 -0 0 1 1 -0 -1 -2 -1 -0 0 1 1 1 -0 -1 -1 -0 0 -0 -0 -0 -0 -1 -1 -1 -1 -1 -0 -0 -0 -0 -0 -0 -1 -1 -1 -1 -1 -1 -1 -1 -1 -1 -1 -1 -1 -1 -1
3 4 4 3 2 2 1 0 0 0 0 0 0 0 0 -0 -1 -2 -4 -3 -2 0 1 1 0 -1 -1 -1 -1 -1 -0 1 2 2 1 1 0 -0 0 -0 -0 -1 -1 -1 0 1 1 1 1 1 1 1 0 -1 -1 -0 0 0 1 1 -0 -1 -1 -0 0 1 1 1 0 -0 -0 -0 0 0 -0 -0 -0 -0 -0 -0 -0 -0 0 0 0 -0 -0 -0 -0 -1 -0 -1 -1 -1 -1 -1 -1 -1 -1 -1 -1 -1 -1
3 4 5 4 3 2 1 0 0 0 0 0 -0 -0 -0 -1 -1 -2 -4 -3 -2 1 2 1 0 -1 -1 -1 -1 -1 0 1 2 2 1 1 -0 -0 1 1 0 -1 -1 -1 -0 0 1 1 1 1 1 1 1 0 -1 -0 0 1 1 1 0 -1 -1 -0 0 0 1 0 0 -0 -0 0 0 0 0 0 0 -0 -0 -0 -0 0 0 0 0 -0 -0 -0 -0 -0 -0 -0 -1 -1 -1 -1 -1 -1 -1 -1 -1 -1 -1
3 5 5 4 3 2 1 1 0 1 1 0 -0 -0 -0 -0 -1 -3 -4 -3 -1 1 3 1 -0 -1 -1 -1 -1 -0 1 1 2 2 1 0 -0 0 1 1 1 -0 -1 -1 -1 -0 0 0 0 1 1 1 1 1 -0 -0 0 1 1 1 0 -0 -1 -0 -0 0 0 0 -0 -0 -0 0 0 0 0 1 0 0 0 -0 -0 -0 0 0 0 -0 -0 -0 -0 -1 -0 -0 -0 -0 -1 -1 -1 -1 -1 -1 -1 -1 -1
3 5 5 4 3 2 1 1 1 1 1 1 0 -0 0 0 -1 -2 -4 -2 -0 2 2 1 -0 -1 -1 -1 -0 0 1 1 2 2 1 0 -0 1 2 1 1 -0 -1 -1 -0 -0 0 0 0 0 1 1 1 1 0 -0 0 0 1 1 0 0 -0 -0 -0 0 0 -0 -0 -1 -0 -0 0 0 1 1 1 0 0 -0 -0 -0 -0 0 0 -0 -0 -0 -0 -1 -1 -1 -1 -0 -1 -0 -1 -1 -1 -1 -1 -1 -1
3 5 6 4 3 2 1 1 1 1 1 1 0 -0 0 0 -0 -1 -2 -1 1 2 2 1 -0 -1 -1 -1 -0 1 1 1 2 2 1 -0 0 1 2 1 0 -0 -0 -0 0 0 1 1 0 0 0 1 1 0 0 0 0 0 1 1 0 0 0 0 0 0 -0 -0 -0 -1 -1 -1 -0 0 1 1 0 0 -0 -0 -0 -0 -0 -0 -0 -0 -0 -0 -0 -1 -1 -1 -1 -1 -1 -0 -0 -0 -1 -1 -1 -1 -1
3 5 6 5 4 2 1 1 1 1 2 1 0 -0 -1 -1 -1 -0 0 1 1 1 1 1 0 -0 -1 -0 0 1 1 2 2 1 0 -0 0 1 2 1 0 -0 -0 -0 0 1 1 1 1 0 0 0 0 0 0 0 0 0 0 1 1 0 1 0 1 1 0 0 -0 -1 -1 -1 -0 0 1 0 0 -0 -0 -0 -0 -0 -0 -0 -0 -0 -0 -0 -0 -1 -1 -1 -1 -1 -1 -1 -0 -0 -0 -1 -1 -1 -1
2 4 6 6 4 3 1 1 1 1 2 2 1 0 -1 -2 -1 0 2 1 1 1 1 1 0 -0 -0 0 1 1 1 2 2 1 0 0 1 1 1 0 -0 -0 -0 -0 0 1 1 1 1 0 0 0 0 0 0 0 0 0 0 0 0 0 -0 0 1 2 1 0 -0 -0 -1 -1 -0 0 0 0 -0 -0 -0 -0 -0 -0 -0 -0 -0 -0 -0 -0 -0 -1 -1 -1 -1 -1 -1 -1 -0 -0 -0 -1 -1 -1 -1
2 4 6 6 5 3 1 1 1 1 1 1 1 1 -0 -2 -1 1 2 1 1 1 1 1 0 -0 -0 1 1 1 1 2 2 1 0 0 1 1 1 -0 -0 -0 -0 0 0 1 1 1 0 0 -0 0 0 0 0 0 0 0 0 0 0 1 1 1 1 1 1 1 1 -0 -1 -1 -0 -0 0 -0 -0 -0 -0 -0 -0 -0 -0 -0 -0 -0 -0 -0 -0 -1 -1 -1 -1 -1 -1 -1 -0 -0 -0 -0 -1 -1 -1
2 3 5 6 6 4 2 1 1 1 1 1 1 1 0 -1 -1 1 1 0 0 1 1 0 0 0 0 1 1 1 2 2 2 1 0 1 1 1 0 -0 -0 -0 0 0 0 1 1 1 0 -0 -0 0 0 0 0 0 0 0 0 -0 0 1 1 1 1 1 1 1 0 0 -0 -0 -0 -0 -0 0 -0 -0 -0 -0 -0 -1 -1 -0 -0 -0 -0 -0 -0 -0 -1 -1 -1 -1 -1 -1 -1 -0 -0 -0 -1 -1 -1
2 2 4 6 6 4 2 2 2 1 1 0 1 1 1 -1 -1 1 0 0 1 1 1 0 0 0 0 1 1 1 2 2 2 1 1 1 1 1 -0 -0 -0 -0 0 0 0 1 1 1 1 0 -0 0 0 1 0 0 0 -0 -0 -0 0 1 1 1 1 1 1 1 0 0 0 -0 -0 -0 -0 -1 -0 -0 -0 -0 -1 -1 -1 -1 -0 -0 -0 -0 -0 -0 -1 -1 -1 -1 -1 -1 -1 -0 -0 -0 -1 -1 -1
2 2 3 5 5 4 2 2 2 2 1 0 1 2 2 -0 -1 -0 -0 0 1 1 1 1 0 0 0 1 1 1 2 2 2 1 1 1 1 1 -0 -0 -0 0 0 0 0 1 1 1 1 0 -0 0 1 1 0 0 -0 -0 -0 -0 -0 0 0 1 1 1 1 1 1 1 0 0 -0 -0 -0 -0 -1 -0 -0 -1 -1 -1 -1 -1 -1 -1 -0 -0 -0 -0 -1 -1 -1 -1 -1 -1 -1 -0 -0 -0 -1 -1 -1
2 2 2 4 4 4 3 2 2 2 1 1 1 2 2 1 -0 -1 -0 1 1 2 1 1 1 0 0 1 1 2 2 2 2 1 1 1 1 1 0 0 0 -0 -0 0 0 1 1 1 1 1 -0 0 1 1 0 0 -0 -0 -1 -0 -0 -0 0 0 1 1 1 1 1 0 0 0 -0 -0 -0 -0 -1 -1 -1 -1 -1 -1 -1 -1 -1 -1 -1 -1 -0 -0 -0 -1 -1 -1 -1 -1 -1 -0 -0 -0 -1 -1 -1
2 2 2 3 3 3 2 2 2 2 1 1 2 2 2 1 0 -1 0 1 2 2 1 1 1 0 0 1 2 2 2 2 2 1 1 1 1 1 1 0 -0 -0 -0 -0 0 1 1 1 1 1 -0 0 1 1 1 0 -0 -0 -0 -0 -0 0 0 -0 -0 0 1 1 0 0 0 -0 -0 -0 -1 -1 -1 -1 -1 -1 -1 -1 -1 -1 -1 -1 -1 -1 -0 -0 -0 -1 -1 -1 -1 -1 -1 -0 -0 -0 -1 -1 -1
1 1 1 3 3 3 2 2 2 2 2 2 2 2 2 1 0 -0 0 1 2 2 2 1 1 0 0 1 2 3 2 2 2 1 1 1 1 1 1 0 -0 -0 -0 -0 0 1 1 1 1 1 0 0 0 1 1 0 -0 -0 -0 -0 -0 0 1 1 0 0 0 0 0 0 -0 -0 -0 -1 -1 -1 -1 -1 -0 -0 -0 -0 -0 -1 -1 -1 -1 -1 -1 -0 -1 -1 -1 -1 -2 -1 -1 -0 -0 -0 -1 -1 -1
-0 0 1 3 3 2 1 1 2 2 2 2 2 2 1 1 1 0 1 1 2 1 2 1 0 -0 0 2 2 3 2 2 2 1 1 1 1 1 1 0 -0 -0 -0 -0 0 1 1 1 1 1 0 0 0 0 1 0 0 -0 -0 -0 -0 0 1 1 1 0 0 0 0 0 -0 -0 -0 -0 -0 -0 -0 -0 -0 -0 -0 -0 -0 -0 -0 -0 -0 -0 -0 -0 -1 -1 -1 -2 -2 -1 -1 -1 -0 -1 -1 -1 -1
-0 0 1 3 2 1 0 1 1 2 1 2 2 2 1 1 1 1 1 1 1 1 2 1 0 -0 1 2 3 3 2 2 2 1 1 1 1 1 1 0 -0 -0 -0 -0 0 0 1 1 1 1 1 0 -0 -0 0 0 0 -0 -0 -0 -0 0 1 1 1 0 0 0 0 0 0 0 0 -0 -0 -0 -0 0 -0 -0 0 -0 -0 -0 -0 -0 -0 -1 -0 -0 -0 -1 -1 -2 -2 -1 -1 -1 -1 -1 -1 -1 -1
0 0 2 3 2 1 -0 0 1 2 1 2 2 2 1 1 1 1 1 1 1 1 1 0 -0 -0 2 3 3 3 2 2 2 1 1 1 1 1 1 0 -0 -0 -0 -0 -0 0 0 0 0 0 1 0 0 -0 -0 0 -0 -0 -1 -0 -0 -0 0 0 0 0 0 0 0 0 0 0 0 0 -0 -0 0 0 0 0 0 -0 -0 -1 -1 -1 -1 -1 -1 -1 -0 -1 -1 -2 -2 -1 -1 -1 -0 -1 -1 -1 -1
1 1 2 2 2 0 -0 -0 1 2 1 1 1 2 1 2 2 2 2 1 1 1 1 -0 -0 1 2 3 3 2 2 2 1 1 2 2 2 1 1 0 -0 -0 -0 -0 -0 -0 -0 -0 -0 0 0 0 0 -0 -0 -0 -0 -0 -1 -0 -0 -0 -0 0 0 0 0 0 0 0 0 0 0 0 0 0 0 0 0 0 0 -0 -0 -1 -1 -1 -1 -1 -1 -1 -0 -1 -1 -1 -2 -1 -1 -1 -0 -0 -0 -1 -1
2 1 2 2 1 -0 -1 -0 0 1 2 2 1 1 1 2 2 2 2 1 1 1 0 0 1 1 2 2 2 2 2 1 1 1 2 2 2 1 1 0 -0 -0 -0 -0 -0 -0 -0 -1 -1 -0 -0 -0 -0 -0 -0 -0 -0 -0 -1 -0 -1 -1 -0 -0 -0 0 0 0 0 0 0 0 0 0 0 0 0 0 0 0 0 -0 -0 -0 -0 -0 -0 -1 -1 -1 -0 -1 -1 -1 -1 -1 -1 -1 -0 -0 -0 -0 -1
1 1 2 1 -0 -1 -1 -1 -1 0 1 2 2 1 0 1 1 2 1 0 0 0 1 1 1 1 1 2 2 2 2 1 1 2 2 2 2 1 1 0 -0 -0 -1 -1 -0 -0 -1 -1 -1 -1 -0 -0 -0 -0 -0 -0 -0 -0 -0 -0 -1 -1 -0 -0 -0 0 0 0 0 0 1 0 0 0 0 0 0 0 0 0 0 0 -0 0 0 -0 -0 -0 -0 -0 -0 -1 -1 -1 -1 -1 -1 -1 -0 -0 -0 -0 -1
-1 0 1 -0 -1 -1 -0 -1 -1 -1 -1 1 1 1 1 1 1 1 1 0 0 1 1 0 0 0 1 2 3 3 2 2 1 2 2 1 1 1 1 0 -0 -1 -1 -1 -0 -0 -0 -1 -1 -1 -0 -0 -0 -1 -1 -0 -0 -0 -0 -0 -0 -0 -0 -0 -0 0 0 0 0 0 0 0 0 0 0 0 0 0 0 0 0 0 0 0 0 0 0 0 -0 -0 -0 -0 -1 -1 -1 -1 -1 -1 -1 -0 -0 -1 -1
-2 -0 1 -0 -1 -0 0 -0 -0 -1 -3 -0 1 1 1 1 1 1 1 1 2 2 1 -0 -0 0 2 3 4 3 2 2 2 2 2 2 1 1 1 0 -0 -1 -1 -1 -0 -0 -0 -0 -1 -1 -0 -0 -0 -1 -1 -0 -0 -0 -0 -0 -0 -1 -1 -0 -0 0 0 0 0 -0 0 0 0 0 0 0 0 0 0 -0 -0 -0 -0 0 0 0 0 0 0 0 -0 -0 -0 -1 -1 -1 -1 -1 -1 -1 -1 -1 -1
-2 -0 1 0 0 1 1 1 1 -0 -2 -1 -0 -0 -1 -1 0 2 3 3 3 2 0 -0 0 1 3 4 4 3 2 2 2 2 2 2 1 1 1 0 -0 -1 -1 -1 -1 -0 -0 -0 -0 -0 -0 -0 -0 -1 -1 -0 -0 -0 -1 -0 -1 -1 -1 -0 -0 0 0 0 0 0 0 0 0 0 0 0 0 0 -0 -0 -0 -0 -0 0 0 0 0 0 -0 -0 -0 -0 -0 -0 -0 -1 -1 -1 -1 -1 -1 -1 -1
-1 1 1 0 1 2 2 2 2 1 -1 -2 -1 -1 -2 -1 1 3 4 4 3 1 -0 0 1 2 3 4 4 3 2 2 2 2 1 2 1 1 1 0 -0 -1 -1 -1 -1 -0 -0 0 -0 -0 -0 -0 -0 -0 -0 -0 -0 -0 -1 -0 -1 -1 -1 -0 -0 0 0 0 0 0 0 0 0 0 0 0 0 -0 0 0 0 0 0 0 0 0 0 -0 -0 -0 -0 -0 -0 -0 -0 -0 -1 -1 -1 -1 -1 -1 -1
1 2 2 1 1 3 2 2 2 2 2 1 0 -1 -1 0 2 3 4 3 2 1 -0 1 1 2 4 4 4 3 2 2 2 2 2 1 1 1 1 0 -0 -1 -1 -1 -1 -0 0 0 0 0 -0 -0 -0 -0 -0 -0 0 -0 -0 -0 -1 -1 -1 -0 0 0 0 0 0 0 0 0 0 0 0 0 0 0 0 1 1 0 0 -0 -0 -0 0 0 -0 -0 -0 -1 -1 -1 -1 -1 -1 -1 -1 -1 -1 -1 -1
1 2 3 1 2 3 3 1 1 1 3 3 2 1 1 2 3 3 3 2 1 0 0 1 2 2 3 4 4 3 2 2 2 2 2 2 2 1 1 0 -0 -0 -0 -1 -1 -0 -0 0 0 0 0 -0 -0 -0 -0 0 0 0 -0 -0 -0 -1 -1 -0 0 1 0 0 0 0 1 0 0 0 0 0 0 1 1 1 0 0 -0 -0 -0 -0 0 0 0 0 -0 -0 -1 -1 -1 -1 -1 -1 -1 -1 -1 -1 -1
1 3 5 2 2 2 3 1 0 -0 1 2 2 2 2 2 3 3 2 1 0 -0 0 1 1 2 3 4 4 3 3 2 2 2 2 2 2 2 1 1 0 -0 -0 -0 -0 -0 -0 0 0 0 0 0 -0 -0 -0 0 0 0 -0 0 0 -0 -1 -1 -0 0 0 1 1 1 1 0 0 0 0 0 0 0 0 0 0 -0 -0 -1 -1 -1 -0 -0 0 0 0 -0 -0 -0 -1 -1 -1 -1 -1 -1 -1 -1 -1
0 3 8 4 2 1 2 2 1 -1 -1 1 2 1 1 2 2 3 3 1 -0 -0 0 1 1 1 2 3 4 3 3 2 2 2 2 2 2 2 1 1 0 -0 -0 -0 -0 -0 -0 0 0 0 0 0 -0 -0 -0 0 0 0 -0 -0 -0 -0 -0 -0 -0 0 1 1 1 1 1 0 0 0 0 0 0 -0 -0 -0 -0 -0 -0 -0 -1 -1 -1 -1 -0 -0 -0 -0 -0 -0 -0 -1 -1 -1 -1 -1 -1 -1 -1
-1 3 9 6 2 -0 2 2 2 0 -1 0 1 1 1 2 2 2 3 1 0 0 1 1 0 1 2 3 4 4 3 3 2 2 2 2 2 2 1 1 0 0 -0 -0 -0 -0 -0 -0 0 0 0 0 -0 -0 -1 -0 -0 0 0 -0 -0 -0 -0 -0 -0 -0 0 0 0 0 0 -0 -0 -0 -0 -0 -1 -1 -1 -1 -1 -0 0 -0 -0 -1 -1 -1 -1 -1 -0 -0 -0 -1 -1 -1 -1 -1 -1 -1 -1 -1 -1
-1 3 8 6 3 1 1 2 2 1 -0 0 1 1 2 2 2 2 2 1 1 1 1 0 0 1 2 3 4 4 3 3 3 3 3 2 2 2 1 1 0 0 -0 -0 0 0 0 -0 0 0 0 0 -0 -0 -1 -1 -0 -0 0 0 -0 -1 -0 -0 -0 -0 -0 -0 -0 -0 -1 -1 -1 -1 -1 -1 -1 -1 -1 -1 -0 0 0 0 -0 -0 -1 -1 -1 -1 -1 -1 -1 -1 -1 -1 -1 -1 -1 -1 -1 -1 -1
1 4 6 6 4 2 1 2 2 1 1 1 1 1 2 2 2 1 1 1 1 1 1 1 1 1 2 3 4 4 3 3 3 3 2 2 2 2 1 1 0 0 0 0 0 0 0 -0 -0 0 0 0 -0 -0 -1 -1 -1 -1 -0 -0 -0 -1 -1 -1 -1 -1 -1 -1 -1 -1 -1 -1 -1 -1 -1 -1 -1 -1 -0 -0 0 0 0 0 -0 -1 -1 -1 -1 -1 -1 -1 -1 -1 -1 -1 -1 -1 -1 -1 -1 -1 -1
2 3 3 4 4 3 2 2 2 2 2 2 1 1 2 2 1 1 1 0 1 1 2 1 1 1 2 3 4 4 4 3 3 2 2 2 2 2 1 1 0 0 0 0 0 0 -0 -0 -0 -0 -0 -0 -0 -0 -0 -1 -1 -1 -0 -0 -0 -0 -0 -0 -1 -1 -1 -1 -1 -1 -1 -1 -1 -1 -0 -0 -0 0 0 0 0 0 -0 -0 -1 -1 -1 -1 -1 -1 -1 -1 -1 -1 -1 -1 -1 -1 -1 -1 -1 -1 -1
2 2 2 3 4 4 4 3 2 2 3 2 2 2 2 1 1 1 0 -0 0 1 1 0 0 0 1 2 3 4 4 3 2 2 2 2 1 1 1 1 1 0 0 0 -0 -0 -0 -0 -1 -0 -0 -0 -0 -0 -0 -0 -0 -0 -0 -0 0 0 0 -0 -0 -0 -0 -0 -0 -0 -1 -1 -0 -0 0 0 0 0 0 0 0 -0 -0 -1 -1 -1 -1 -1 -1 -1 -1 -1 -2 -1 -1 -1 -1 -1 -1 -1 -1 -1 -0
3 2 2 3 3 4 4 3 3 3 3 2 2 2 1 1 1 0 -0 -0 -0 0 1 0 0 0 1 2 3 3 3 3 2 2 2 1 1 1 1 1 1 1 0 0 -0 -0 -0 -1 -1 -1 -1 -1 -0 -0 -0 -0 -0 -0 0 0 0 0 0 0 0 -0 0 -0 -0 -0 -0 -0 -0 0 0 0 0 -0 -0 -0 -0 -0 -0 -1 -1 -1 -1 -1 -1 -1 -1 -2 -2 -1 -1 -1 -1 -1 -1 -1 -1 -0 -0
3 2 2 2 3 4 5 4 3 3 3 3 2 2 1 1 0 0 -1 -1 -0 0 1 1 0 0 1 1 2 3 3 3 3 2 2 1 1 1 1 1 1 1 0 0 -0 -0 -1 -1 -1 -1 -1 -1 -0 -0 0 0 0 0 1 1 1 1 0 0 0 -0 -0 -0 -0 -0 -0 -0 -0 -0 -0 -0 -0 -0 -0 -0 -0 -0 -0 -1 -1 -1 -1 -1 -1 -1 -1 -2 -1 -1 -1 -1 -1 -1 -1 -1 -1 -0 -0
2 1 1 1 2 4 5 4 4 3 3 3 2 1 1 0 -0 -0 -1 -1 -0 0 1 1 1 0 1 2 2 3 4 3 3 3 2 2 1 1 1 1 1 1 0 0 -0 -0 -1 -1 -1 -1 -1 -0 -0 -0 0 0 1 1 1 1 1 1 1 0 0 0 -0 -0 -0 -0 -0 -0 -0 -0 -0 -0 -0 0 0 0 0 -0 -0 -0 -1 -1 -1 -1 -1 -1 -1 -1 -1 -1 -1 -1 -1 -1 -1 -1 -1 -1 -0
1 0 -0 1 2 3 4 3 3 4 3 3 2 1 1 0 0 0 0 -0 0 1 1 1 1 1 1 2 2 3 4 3 3 3 3 2 2 1 1 1 1 1 0 0 0 -0 -1 -1 -1 -1 -1 -0 -0 0 0 0 1 1 1 1 1 1 1 0 0 0 0 -0 -0 -0 -0 -0 -0 -0 -0 -0 -0 -0 0 -0 -0 -0 -0 -0 -0 -0 -1 -1 -1 -1 -1 -1 -1 -1 -1 -1 -1 -1 -1 -1 -1 -1 -0
1 0 0 1 2 3 2 3 3 3 3 2 2 2 2 1 1 1 1 0 0 1 1 1 1 1 1 2 2 3 3 3 3 3 3 2 2 2 1 1 1 1 1 0 0 0 -0 -1 -1 -1 -0 -0 -0 0 0 0 0 1 1 0 0 0 0 0 0 0 -0 -0 -0 -1 -0 -0 -0 -0 -0 -0 -0 -0 -0 -0 -0 -0 -0 -0 -0 -0 -0 -0 -1 -1 -1 -1 -1 -1 -1 -1 -1 -1 -1 -1 -1 -1 -0
1 0 1 2 2 2 2 2 2 2 2 2 2 2 3 2 2 1 1 0 0 1 1 1 1 1 1 2 2 2 3 3 2 2 2 2 2 1 1 1 1 1 1 1 1 0 0 -0 -0 -0 -0 -0 -0 0 0 0 0 0 0 0 0 0 0 0 0 -0 -0 -1 -1 -1 -1 -0 -0 -0 -0 -0 0 0 0 0 0 -0 -0 -0 -0 -0 -0 -0 -0 -1 -1 -1 -1 -1 -0 -0 -0 -0 -0 -1 -1 -1 -0
1 1 2 3 2 2 1 1 1 1 1 2 2 3 3 2 2 1 1 1 1 1 1 1 1 1 2 2 2 2 2 3 2 2 2 2 1 1 1 1 1 1 1 1 1 1 0 0 -0 -0 -0 -0 -0 -0 0 0 0 0 0 0 0 0 0 0 -0 -0 -0 -1 -0 -0 -0 -0 -0 -0 0 0 0 1 1 0 0 -0 -0 -0 -0 -0 -0 -0 -0 -1 -1 -1 -1 -1 -0 -1 -0 0 -0 -1 -1 -1 -1
1 2 3 3 2 1 1 0 0 0 1 2 3 3 3 2 2 2 1 1 1 1 1 1 2 2 2 2 2 2 2 3 3 2 2 2 2 1 1 1 1 1 1 1 1 1 1 0 0 -0 -0 -0 -0 -0 -0 0 0 0 0 0 0 0 0 0 -0 -0 -0 -0 -0 -0 0 0 0 0 0 0 1 1 1 0 0 -0 -0 -0 -0 -0 -0 -0 -1 -1 -1 -1 -1 -0 -0 -0 -0 0 0 -0 -1 -1 -1
2 3 3 2 1 0 -0 -1 -1 0 1 2 2 2 2 2 2 2 1 1 1 1 1 2 2 2 2 1 1 2 2 3 3 3 2 2 2 2 1 1 1 1 1 1 1 1 1 1 0 0 0 -0 -0 -0 -0 0 0 0 0 0 0 0 0 0 0 0 0 0 0 0 0 0 0 0 1 0 0 0 1 0 0 -0 -0 -0 0 -0 -0 -0 -1 -1 -1 -1 -0 -0 -0 -0 -0 0 0 -0 -1 -1 -1
2 2 2 1 0 -1 -1 -2 -1 0 1 2 2 2 2 2 1 1 1 1 1 1 1 2 2 2 1 1 1 1 2 3 3 3 3 2 2 2 2 2 1 1 1 1 1 1 1 1 1 1 0 -0 -0 -0 -0 0 0 1 1 1 1 1 0 0 0 0 0 0 0 0 0 1 1 1 1 0 0 0 1 0 0 0 -0 0 0 -0 -0 -1 -1 -1 -1 -1 -0 -0 -0 -0 -0 -0 -0 -1 -1 -1 -1
1 1 1 -0 -2 -2 -2 -2 -1 1 1 1 1 2 2 1 1 1 1 1 1 1 1 2 2 2 1 1 1 1 2 2 3 3 3 2 2 2 2 2 2 1 1 1 1 1 1 1 1 1 0 -0 -0 -0 -0 -0 0 1 1 1 1 1 1 1 1 0 0 0 0 0 1 1 1 1 0 0 0 0 0 1 0 0 0 0 0 -0 -1 -1 -1 -1 -0 -0 -0 -0 -1 -1 -1 -1 -1 -1 -1 -1 -1
-0 -0 -0 -2 -3 -3 -3 -1 0 1 2 1 1 2 2 1 1 1 1 1 1 1 1 1 1 1 1 1 1 1 1 1 1 2 2 2 2 2 2 2 2 1 1 1 1 1 1 1 1 0 -0 -0 -1 -1 -0 -0 0 0 1 0 1 1 1 1 1 0 0 0 0 1 1 1 1 0 0 -0 -0 -0 0 0 0 0 0 0 -0 -0 -1 -1 -0 -0 -0 -0 -1 -1 -1 -1 -1 -1 -1 -1 -1 -1 -0
0 0 -0 -2 -3 -3 -2 -0 1 2 2 1 1 2 2 2 2 2 2 2 1 1 1 1 1 1 1 1 1 1 0 0 0 0 1 1 1 1 1 2 1 1 1 1 1 1 1 1 0 -0 -0 -1 -1 -1 -0 -0 -0 -0 -0 -0 0 0 0 0 0 0 0 1 1 1 1 1 1 0 -0 -0 -0 -0 0 0 1 1 0 0 -0 -0 -0 -0 -0 -0 -0 -1 -1 -1 -1 -1 -1 -1 -1 -1 -0 -0 -0
1 1 -0 -2 -2 -2 -1 1 2 3 2 2 2 2 2 2 2 3 2 2 2 2 1 1 1 1 1 1 0 0 0 0 0 0 0 1 1 1 1 1 1 1 1 1 1 1 1 0 -0 -0 -0 -0 -0 -0 -0 -0 -0 -0 -1 -0 -0 -0 0 0 0 0 1 1 1 1 1 1 1 0 -0 -0 -0 0 0 1 1 1 1 0 0 -0 -0 -0 -0 -0 -1 -1 -1 -1 -1 -1 -1 -1 -1 -1 -0 -0 -0
1 1 -1 -2 -3 -2 -1 2 3 3 2 2 2 2 2 2 2 2 2 2 2 1 1 1 1 1 1 1 1 1 1 1 1 1 0 0 0 0 1 1 1 1 1 1 1 1 0 0 -0 -0 -0 -0 0 0 0 -0 -0 -0 -1 -0 -0 -0 0 0 0 0 1 1 1 1 1 1 0 0 -0 0 0 0 0 0 0 0 0 0 -0 -0 -0 -0 -1 -1 -1 -1 -1 -1 -1 -1 -1 -1 -1 -0 -0 -0 -0
2 1 -1 -3 -3 -2 1 3 4 3 2 2 2 1 1 1 1 0 0 0 0 0 0 1 1 1 1 1 1 1 1 1 1 1 0 -0 -0 0 1 1 1 1 1 1 1 1 0 0 0 0 0 0 1 1 0 0 0 -0 -0 -0 -0 0 0 0 0 0 1 1 1 1 1 0 -0 -0 -0 0 0 0 -0 -0 -0 -0 -0 -1 -1 -1 -0 -0 -1 -1 -1 -1 -1 -1 -1 -1 -1 -0 -0 -0 -1 -1 -1
2 1 -1 -2 -2 -0 3 5 4 3 1 1 0 -0 -1 -1 -1 -1 -0 -1 -1 -0 0 1 1 1 1 1 1 1 1 1 1 0 -1 -0 1 2 2 2 2 1 1 1 1 0 0 0 0 1 1 1 1 1 1 1 0 0 0 0 0 0 0 0 1 1 1 1 1 1 0 -0 -1 -1 -0 -0 -0 -1 -1 -1 -1 -1 -1 -1 -1 -1 -0 -0 -1 -1 -1 -1 -0 -0 -0 -0 -0 -0 -0 -0 -1 -1 -1
3 2 1 -0 1 2 4 4 3 2 0 0 -0 -1 -1 -0 0 0 -0 -0 0 1 1 1 1 1 1 1 0 -0 -0 -0 0 1 1 2 3 3 3 2 1 0 -0 0 0 0 1 1 1 1 1 1 1 1 1 1 1 1 1 1 1 1 1 1 1 1 1 1 1 1 -0 -0 -1 -1 -1 -1 -1 -1 -1 -1 -1 -1 -1 -1 -1 -1 -0 -1 -1 -1 -1 -0 0 0 0 0 0 -0 -0 -0 -0 -0 -0
3 2 1 2 2 3 4 3 2 0 -0 -0 -1 -1 -0 1 1 1 1 0 1 1 1 1 1 1 1 0 -0 -1 -1 -0 0 1 3 3 3 2 1 -1 -2 -2 -1 -0 -0 -0 0 1 2 2 2 2 1 1 1 1 1 1 1 1 1 1 1 1 1 1 1 1 1 0 -0 -0 -0 -0 -0 -1 -1 -1 -1 -1 -1 -1 -1 -1 -1 -1 -1 -1 -1 -1 -0 0 0 0 0 0 0 0 0 0 0 0 -0
2 2 2 3 3 3 3 2 1 0 0 -0 -1 -0 1 2 2 1 1 1 1 1 1 1 1 0 0 -0 -0 -0 0 1 2 2 2 1 1 -0 -2 -2 -1 0 2 1 0 -0 1 3 3 2 2 2 1 1 1 1 1 1 1 1 1 1 1 1 1 1 1 1 1 0 -0 -0 -0 -0 -0 -1 -1 -1 -1 -1 -1 -1 -1 -0 -0 -0 -0 -1 -0 -0 -0 0 0 0 0 0 0 0 1 1 1 0 0
1 1 2 3 3 3 2 2 1 0 -0 -1 -1 -1 1 2 2 2 2 1 1 2 1 1 0 0 -0 0 1 2 3 3 2 2 2 1 0 -0 -1 0 2 3 2 1 0 2 5 4 4 3 1 2 1 1 1 1 1 1 1 1 1 1 2 2 2 1 1 1 0 0 0 0 0 0 -0 -0 -1 -1 -1 -0 -0 -0 -0 -0 -0 -0 -0 -0 -0 0 0 -0 -0 -0 -0 -0 0 0 0 0 0 0 0
1 1 1 2 2 2 2 1 0 -0 -1 -1 -1 -1 1 1 1 1 1 2 2 2 2 2 1 1 1 2 2 3 4 3 3 3 2 1 0 -0 -0 0 1 1 0 0 2 4 5 3 2 1 0 1 1 1 1 1 1 1 1 1 1 2 2 2 2 1 1 1 0 0 -0 -0 -0 -0 -0 -0 -0 -0 0 0 0 0 0 0 0 0 0 0 0 0 0 -0 -1 -1 -1 -1 -0 -0 -0 -0 -0 -0 -0
-0 -0 1 2 2 2 2 1 -0 -1 -1 -1 -1 -0 0 1 0 0 0 1 1 2 2 2 2 2 2 2 2 3 3 3 3 3 2 1 1 -0 -0 -0 -0 0 1 1 3 4 3 2 1 -0 -1 1 1 0 1 1 1 1 1 1 1 2 2 2 2 1 1 0 0 -0 -1 -1 -1 -1 -0 0 0 1 1 1 0 0 0 0 0 1 0 0 0 0 0 -0 -1 -1 -2 -1 -1 -1 -1 -1 -1 -1 -1
-1 -0 1 1 2 2 2 0 -0 -1 -0 -1 -1 -1 -0 -0 -0 -0 0 1 2 2 2 2 2 2 2 2 1 1 2 2 3 3 2 2 1 0 0 1 1 1 1 1 2 2 2 1 0 -1 0 1 1 0 1 0 0 0 1 1 1 1 2 1 1 1 0 -0 -1 -1 -1 -1 -1 -0 0 0 1 1 1 0 0 0 0 0 1 1 0 0 0 0 0 -0 -1 -1 -2 -2 -2 -1 -1 -1 -1 -1 -1
-1 -0 1 1 1 1 1 -0 -0 -0 -0 -0 -1 -1 -1 -1 -0 0 1 2 2 2 2 2 1 1 1 1 1 0 0 1 2 3 2 1 1 0 1 2 2 2 1 1 2 2 2 1 0 0 1 1 0 0 1 0 0 0 0 1 1 1 1 1 1 0 -0 -1 -1 -1 -1 -1 0 1 1 1 1 1 0 0 -0 0 0 1 1 1 0 0 0 0 0 -0 -1 -1 -2 -2 -2 -2 -2 -1 -1 -1 -0
-1 -0 0 1 1 1 -0 -0 -0 -0 -0 -0 -1 -1 -1 -0 1 1 2 2 1 1 1 1 1 1 1 1 1 1 1 2 2 2 2 1 0 1 2 2 2 1 2 2 2 2 2 1 1 1 2 1 1 0 -0 -0 -0 0 -0 0 1 1 1 0 0 -0 -0 -1 -1 -1 -1 0 1 1 1 1 1 0 -0 -0 -0 0 1 1 1 0 0 0 0 0 0 -0 -1 -1 -1 -2 -2 -2 -2 -1 -1 -1 -0
-1 -0 0 1 1 0 -0 -0 -0 0 0 0 -0 -1 -1 0 1 1 1 1 1 1 0 0 0 0 0 0 1 2 3 2 2 1 1 0 1 1 2 2 2 2 2 2 2 2 1 1 1 1 1 1 1 0 -1 -1 -0 0 -0 0 0 1 0 0 0 0 -0 -1 -1 -0 0 1 1 1 1 1 1 0 -0 -0 0 0 1 1 0 0 0 0 0 0 0 -0 -1 -1 -1 -2 -2 -1 -1 -1 -1 -0 -0
Height
3112 3113 3114 3114 3115 3116 3117 3117 3117 3118 3118 3119 3119 3120 3121 3121 3122 3122 3122 3122 3123 3125 3126 3127 3127 3127 3128 3128 3129 3130 3131 3132 3132 3133 3133 3133 3134 3134 3133 3133 3133 3134 3134 3134 3135 3135 3136 3136 3136 3136 3136 3136 3136 3137 3137 3137 3137 3138 3138 3138 3138 3138 3139 3139 3140 3140 3140 3141 3141 3141 3141 3141 3141 3141 3141 3141 3141 3141 3141 3141 3141 3141 3141 3141 3141 3141 3141 3140 3140 3140 3140 3139 3139 3139 3139 3138 3138 3138 3138 3137 3137 3137 3136
3111 3112 3113 3113 3114 3115 3115 3116 3117 3117 3117 3118 3118 3119 3119 3120 3120 3121 3121 3121 3122 3124 3125 3126 3126 3126 3127 3127 3128 3129 3130 3131 3132 3132 3132 3133 3133 3133 3133 3133 3133 3133 3133 3134 3134 3135 3135 3135 3136 3136 3136 3136 3136 3136 3136 3137 3137 3137 3138 3138 3138 3138 3138 3139 3139 3140 3140 3140 3141 3141 3141 3141 3141 3141 3141 3141 3141 3141 3141 3141 3141 3141 3141 3141 3141 3140 3140 3140 3140 3140 3139 3139 3139 3138 3138 3138 3138 3137 3137 3137 3137 3136 3136
3110 3111 3112 3112 3113 3114 3114 3115 3115 3116 3116 3117 3117 3117 3118 3119 3119 3119 3120 3120 3121 3123 3124 3125 3125 3125 3126 3127 3127 3128 3129 3130 3131 3132 3132 3132 3132 3132 3133 3133 3132 3132 3132 3133 3133 3134 3134 3134 3135 3135 3135 3136 3136 3136 3136 3136 3137 3137 3137 3138 3138 3138 3138 3138 3139 3139 3140 3140 3140 3141 3141 3141 3141 3141 3141 3141 3141 3141 3141 3141 3141 3141 3141 3141 3140 3140 3140 3140 3139 3139 3139 3139 3138 3138 3138 3137 3137 3137 3137 3136 3136 3136 3135
3109 3110 3111 3112 3112 3113 3113 3114 3114 3115 3115 3116 3116 3117 3117 3117 3118 3118 3119 3119 3120 3122 3123 3123 3124 3124 3125 3126 3127 3127 3128 3129 3130 3131 3131 3131 3131 3132 3132 3132 3132 3132 3132 3132 3133 3133 3133 3134 3134 3134 3135 3135 3135 3136 3136 3136 3136 3137 3137 3137 3138 3138 3138 3138 3138 3139 3139 3140 3140 3140 3140 3140 3140 3141 3141 3141 3141 3141 3140 3140 3140 3140 3140 3140 3140 3140 3140 3139 3139 3139 3138 3138 3138 3138 3137 3137 3137 3137 3136 3136 3135 3135 3135
3108 3109 3110 3111 3111 3112 3112 3113 3113 3114 3114 3114 3115 3115 3116 3117 3117 3117 3118 3118 3119 3120 3122 3122 3123 3123 3124 3125 3126 3127 3127 3128 3129 3130 3130 3130 3131 3131 3132 3132 3131 3131 3132 3132 3132 3132 3133 3133 3134 3134 3134 3135 3135 3135 3135 3135 3136 3136 3137 3137 3137 3137 3138 3138 3138 3138 3139 3139 3139 3140 3140 3140 3140 3140 3140 3140 3140 3140 3140 3140 3140 3140 3140 3140 3140 3139 3139 3139 3139 3138 3138 3138 3137 3137 3137 3137 3136 3136 3136 3135 3135 3134 3134
3107 3108 3109 3109 3110 3111 3112 3112 3112 3112 3113 3113 3114 3114 3114 3115 3116 3117 3117 3117 3118 3119 3120 3121 3122 3122 3123 3124 3125 3126 3127 3128 3129 3129 3129 3130 3130 3130 3131 3131 3131 3131 3131 3131 3132 3132 3132 3133 3133 3133 3134 3134 3134 3134 3135 3135 3135 3136 3136 3137 3137 3137 3137 3137 3138 3138 3138 3139 3139 3139 3140 3140 3140 3140 3140 3140 3140 3140 3140 3140 3140 3139 3139 3139 3139 3139 3139 3138 3138 3138 3137 3137 3137 3137 3136 3136 3136 3135 3135 3135 3134 3134 3134
3106 3107 3108 3108 3109 3110 3110 3111 3111 3112 3112 3112 3113 3113 3113 3114 3115 3116 3117 3117 3117 3118 3119 3120 3121 3122 3122 3123 3124 3125 3126 3127 3128 3128 3128 3129 3129 3130 3130 3130 3130 3130 3130 3131 3131 3132 3132 3132 3132 3133 3133 3133 3134 3134 3134 3134 3135 3135 3136 3136 3136 3137 3137 3137 3137 3138 3138 3138 3138 3139 3139 3139 3139 3139 3140 3140 3139 3139 3139 3139 3139 3139 3139 3139 3138 3138 3138 3138 3138 3137 3137 3137 3137 3136 3136 3135 3135 3135 3134 3134 3134 3133 3133
3105 3106 3107 3107 3108 3109 3109 3110 3110 3111 3111 3111 3112 3112 3112 3113 3114 3115 3116 3116 3116 3117 3118 3119 3120 3121 3121 3122 3123 3124 3125 3127 3127 3127 3128 3128 3128 3129 3129 3129 3129 3129 3129 3130 3131 3131 3132 3132 3132 3132 3132 3133 3133 3133 3134 3134 3134 3135 3135 3135 3136 3136 3137 3137 3137 3137 3137 3138 3138 3138 3138 3139 3139 3139 3139 3139 3139 3139 3139 3139 3139 3138 3138 3138 3138 3138 3137 3137 3137 3137 3137 3136 3136 3136 3135 3135 3134 3134 3134 3133 3133 3133 3132
3103 3104 3106 3107 3107 3108 3108 3109 3109 3110 3110 3110 3111 3111 3112 3112 3113 3114 3114 3115 3115 3116 3117 3118 3119 3120 3120 3122 3122 3124 3125 3126 3127 3127 3127 3127 3128 3128 3128 3128 3128 3128 3129 3129 3130 3131 3131 3131 3131 3132 3132 3132 3132 3133 3133 3133 3134 3134 3134 3135 3135 3136 3136 3136 3137 3137 3137 3137 3138 3138 3138 3138 3138 3138 3138 3138 3138 3138 3138 3138 3138 3138 3138 3137 3137 3137 3137 3137 3137 3136 3136 3136 3135 3135 3134 3134 3134 3133 3133 3133 3132 3132 3132
3102 3103 3104 3105 3106 3107 3107 3108 3108 3109 3109 3109 3109 3110 3111 3111 3112 3113 3113 3113 3114 3115 3116 3117 3118 3119 3120 3121 3122 3123 3124 3125 3126 3126 3126 3127 3127 3127 3127 3127 3127 3128 3128 3129 3129 3130 3130 3131 3131 3131 3131 3132 3132 3132 3133 3133 3133 3133 3134 3134 3135 3135 3135 3136 3136 3137 3137 3137 3137 3137 3137 3138 3138 3138 3138 3138 3138 3137 3137 3137 3137 3137 3137 3137 3137 3137 3136 3136 3136 3136 3135 3135 3135 3134 3134 3133 3133 3132 3132 3132 3132 3131 3131
3101 3102 3103 3104 3105 3106 3106 3107 3107 3108 3108 3108 3108 3109 3110 3111 3111 3112 3112 3112 3113 3115 3116 3116 3117 3118 3119 3120 3121 3122 3123 3124 3125 3125 3126 3126 3126 3127 3127 3127 3127 3127 3127 3128 3129 3129 3130 3130 3130 3130 3131 3131 3132 3132 3132 3132 3133 3133 3133 3133 3134 3134 3135 3135 3136 3136 3136 3136 3137 3137 3137 3137 3137 3137 3137 3137 3137 3137 3137 3137 3137 3137 3137 3136 3136 3136 3136 3135 3135 3135 3135 3134 3134 3134 3133 3133 3132 3132 3131 3131 3131 3131 3130
3100 3101 3102 3103 3104 3105 3105 3106 3106 3107 3107 3107 3107 3108 3109 3110 3110 3111 3111 3112 3113 3114 3115 3115 3116 3117 3118 3119 3120 3122 3123 3124 3124 3125 3125 3125 3126 3126 3126 3126 3126 3126 3127 3127 3128 3128 3129 3129 3130 3130 3130 3131 3131 3132 3132 3132 3132 3132 3132 3133 3133 3134 3134 3135 3135 3135 3136 3136 3136 3136 3136 3137 3137 3137 3137 3137 3137 3137 3136 3136 3136 3136 3136 3136 3135 3135 3135 3135 3134 3134 3134 3134 3133 3133 3132 3132 3131 3131 3131 3130 3130 3130 3129
3099 3100 3101 3102 3103 3104 3104 3105 3105 3106 3106 3106 3107 3108 3109 3109 3109 3110 3110 3111 3112 3113 3114 3115 3116 3116 3117 3118 3120 3121 3122 3123 3123 3124 3124 3124 3125 3125 3125 3125 3125 3126 3126 3127 3127 3128 3128 3129 3129 3129 3129 3130 3131 3131 3131 3131 3132 3132 3132 3132 3133 3133 3133 3134 3134 3135 3135 3135 3135 3135 3136 3136 3136 3136 3136 3136 3136 3136 3136 3136 3135 3135 3135 3135 3135 3134 3134 3134 3134 3133 3133 3133 3132 3132 3132 3131 3131 3130 3130 3129 3129 3129 3128
3098 3099 3100 3101 3102 3102 3103 3104 3104 3104 3105 3105 3106 3107 3108 3108 3109 3109 3109 3110 3111 3112 3113 3114 3115 3115 3116 3117 3119 3120 3121 3122 3122 3123 3123 3124 3124 3124 3124 3125 3125 3125 3125 3126 3127 3127 3128 3128 3128 3128 3129 3129 3130 3130 3131 3131 3131 3131 3131 3132 3132 3132 3133 3133 3133 3134 3134 3134 3135 3135 3135 3135 3135 3135 3135 3135 3135 3135 3135 3135 3135 3134 3134 3134 3134 3134 3133 3133 3133 3133 3132 3132 3132 3132 3131 3130 3130 3129 3129 3129 3128 3128 3127
3097 3098 3099 3100 3101 3101 3102 3102 3103 3103 3104 3104 3105 3106 3107 3107 3108 3108 3109 3109 3110 3111 3112 3113 3114 3114 3116 3117 3118 3119 3120 3121 3122 3122 3122 3123 3123 3123 3124 3124 3124 3124 3124 3125 3126 3127 3127 3127 3128 3128 3128 3128 3129 3130 3130 3130 3130 3131 3131 3131 3132 3132 3132 3133 3133 3133 3133 3134 3134 3134 3134 3134 3134 3134 3134 3134 3134 3134 3134 3134 3134 3134 3133 3133 3133 3133 3133 3132 3132 3132 3132 3131 3131 3131 3130 3129 3129 3128 3128 3128 3127 3127 3127
3096 3097 3097 3098 3099 3100 3101 3101 3102 3102 3102 3103 3104 3105 3106 3107 3107 3107 3108 3109 3109 3110 3112 3112 3113 3114 3115 3116 3117 3119 3119 3120 3121 3121 3122 3122 3122 3123 3123 3123 3123 3123 3124 3124 3125 3126 3126 3127 3127 3127 3127 3128 3128 3129 3129 3129 3130 3130 3130 3130 3131 3131 3132 3132 3132 3132 3132 3133 3133 3133 3133 3133 3133 3133 3133 3133 3133 3133 3133 3133 3133 3133 3133 3132 3132 3132 3132 3132 3131 3131 3131 3131 3130 3130 3129 3128 3128 3127 3127 3127 3127 3126 3126
3094 3095 3096 3097 3098 3099 3099 3100 3101 3101 3102 3102 3103 3104 3105 3106 3106 3107 3107 3108 3109 3110 3111 3111 3112 3113 3114 3116 3117 3118 3118 3119 3120 3120 3121 3121 3122 3122 3122 3122 3122 3122 3123 3123 3124 3125 3125 3126 3126 3127 3127 3127 3127 3128 3128 3129 3129 3129 3129 3130 3130 3131 3131 3132 3132 3132 3132 3132 3132 3132 3132 3132 3132 3132 3132 3133 3133 3133 3132 3132 3132 3132 3132 3132 3132 3131 3131 3131 3130 3130 3130 3130 3129 3129 3128 3128 3127 3127 3126 3126 3126 3125 3125
3092 3094 3095 3096 3097 3098 3098 3099 3100 3100 3101 3101 3102 3103 3104 3105 3105 3106 3106 3107 3108 3109 3110 3110 3111 3112 3113 3115 3116 3117 3117 3118 3119 3119 3120 3120 3121 3121 3122 3122 3122 3122 3122 3123 3123 3124 3124 3125 3125 3126 3126 3127 3127 3127 3128 3128 3128 3129 3129 3129 3130 3130 3130 3131 3131 3131 3131 3131 3131 3132 3132 3132 3132 3132 3132 3132 3132 3132 3132 3132 3132 3131 3131 3131 3131 3130 3130 3130 3130 3129 3129 3129 3128 3128 3127 3127 3126 3126 3125 3125 3125 3124 3124
3091 3092 3093 3095 3096 3097 3097 3098 3099 3099 3100 3100 3101 3102 3103 3104 3104 3105 3106 3106 3107 3108 3109 3109 3110 3112 3113 3114 3115 3116 3117 3117 3118 3118 3119 3119 3120 3120 3121 3121 3121 3121 3121 3122 3122 3123 3123 3124 3124 3125 3125 3126 3126 3127 3127 3127 3128 3128 3128 3128 3129 3129 3129 3130 3130 3130 3130 3130 3131 3131 3131 3131 3131 3131 3131 3131 3131 3131 3131 3131 3131 3130 3130 3130 3130 3130 3129 3129 3129 3128 3128 3128 3127 3127 3127 3126 3125 3125 3125 3124 3124 3123 3123
3090 3091 3092 3093 3094 3095 3096 3097 3097 3098 3098 3099 3100 3101 3102 3103 3103 3104 3105 3105 3106 3107 3108 3109 3110 3111 3112 3113 3114 3115 3116 3116 3117 3117 3118 3119 3119 3120 3120 3120 3120 3120 3121 3121 3122 3122 3122 3123 3123 3124 3124 3125 3125 3126 3126 3127 3127 3127 3127 3128 3128 3128 3128 3129 3129 3129 3130 3130 3130 3130 3130 3130 3130 3130 3130 3130 3130 3130 3130 3130 3130 3129 3129 3129 3129 3129 3128 3128 3128 3127 3127 3127 3127 3126 3126 3125 3125 3124 3124 3123 3123 3122 3122
3088 3089 3091 3092 3093 3094 3095 3096 3096 3097 3097 3098 3099 3100 3101 3102 3102 3103 3104 3104 3105 3106 3107 3108 3109 3110 3111 3112 3113 3114 3115 3116 3116 3117 3117 3118 3118 3119 3119 3119 3119 3119 3120 3120 3121 3121 3122 3122 3122 3123 3124 3124 3125 3125 3126 3126 3126 3127 3127 3127 3127 3127 3127 3128 3128 3128 3129 3129 3129 3129 3129 3129 3129 3129 3129 3129 3129 3129 3129 3129 3128 3128 3128 3128 3128 3128 3127 3127 3127 3127 3126 3126 3126 3125 3125 3124 3124 3123 3123 3122 3122 3122 3121
3087 3088 3089 3090 3092 3093 3094 3094 3095 3096 3096 3097 3098 3099 3100 3101 3102 3102 3103 3103 3104 3105 3106 3107 3108 3109 3110 3112 3113 3114 3114 3115 3115 3116 3116 3117 3117 3118 3118 3118 3118 3119 3119 3119 3120 3121 3121 3121 3122 3122 3123 3123 3124 3124 3125 3125 3126 3126 3126 3127 3127 3127 3127 3127 3127 3128 3128 3128 3128 3128 3128 3128 3128 3128 3128 3128 3128 3128 3128 3127 3127 3127 3127 3127 3127 3127 3127 3126 3126 3126 3125 3125 3125 3124 3124 3123 3123 3122 3122 3122 3121 3121 3120
3085 3087 3088 3089 3090 3092 3092 3093 3094 3095 3096 3096 3097 3098 3099 3100 3101 3102 3102 3103 3104 3105 3106 3106 3107 3108 3110 3111 3112 3113 3113 3114 3114 3115 3115 3116 3117 3117 3117 3117 3118 3118 3118 3119 3119 3120 3120 3121 3121 3122 3122 3122 3123 3123 3124 3124 3125 3125 3125 3126 3126 3126 3126 3127 3127 3127 3127 3127 3127 3127 3127 3127 3127 3127 3127 3127 3127 3127 3127 3127 3127 3127 3127 3127 3126 3126 3126 3126 3125 3125 3124 3124 3124 3123 3123 3122 3122 3122 3121 3121 3120 3120 3119
3084 3085 3087 3088 3089 3090 3092 3092 3093 3094 3094 3095 3096 3097 3098 3099 3100 3101 3102 3102 3103 3104 3105 3105 3106 3107 3109 3111 3112 3112 3112 3113 3113 3114 3115 3115 3116 3116 3117 3117 3117 3117 3117 3118 3118 3119 3120 3120 3120 3121 3121 3122 3122 3123 3123 3124 3124 3124 3125 3125 3125 3125 3126 3126 3126 3126 3126 3126 3126 3126 3126 3126 3126 3126 3126 3126 3126 3126 3126 3126 3126 3126 3126 3126 3126 3125 3125 3125 3124 3124 3124 3123 3123 3122 3122 3121 3121 3121 3120 3120 3119 3119 3118
3082 3084 3086 3087 3088 3089 3090 3092 3092 3093 3093 3094 3095 3096 3097 3098 3099 3101 3102 3102 3103 3103 3104 3104 3106 3107 3108 3110 3111 3111 3112 3112 3112 3113 3114 3114 3115 3115 3116 3116 3116 3116 3117 3117 3117 3118 3119 3119 3120 3120 3121 3121 3122 3122 3122 3123 3123 3124 3124 3124 3124 3125 3125 3125 3125 3125 3125 3125 3126 3126 3126 3126 3126 3126 3125 3125 3125 3125 3125 3125 3125 3125 3125 3125 3125 3124 3124 3124 3123 3123 3123 3122 3122 3121 3121 3120 3120 3119 3119 3118 3118 3118 3117
3082 3083 3085 3086 3087 3088 3089 3090 3092 3092 3093 3094 3094 3095 3096 3097 3099 3100 3101 3102 3102 3102 3103 3104 3105 3106 3107 3109 3110 3111 3111 3111 3112 3112 3113 3113 3114 3114 3115 3115 3115 3116 3116 3116 3117 3117 3118 3118 3119 3119 3120 3120 3121 3121 3122 3122 3122 3123 3123 3123 3124 3124 3124 3124 3124 3124 3125 3125 3125 3125 3125 3125 3125 3125 3125 3125 3125 3125 3125 3125 3125 3124 3124 3124 3124 3123 3123 3123 3123 3122 3122 3122 3121 3120 3120 3119 3119 3118 3118 3117 3117 3117 3116
3080 3082 3083 3084 3086 3087 3088 3089 3090 3092 3092 3093 3094 3095 3096 3097 3098 3099 3100 3101 3101 3102 3102 3103 3104 3105 3107 3108 3109 3110 3110 3110 3111 3111 3112 3112 3113 3114 3114 3114 3115 3115 3115 3115 3116 3117 3117 3118 3118 3119 3119 3119 3120 3120 3121 3121 3122 3122 3122 3123 3123 3123 3123 3123 3123 3124 3124 3124 3124 3124 3124 3124 3124 3124 3124 3124 3124 3124 3124 3124 3124 3124 3123 3123 3123 3122 3122 3122 3122 3121 3121 3121 3120 3119 3119 3118 3118 3117 3117 3116 3116 3115 3115
3079 3081 3082 3083 3085 3086 3087 3088 3089 3090 3091 3092 3093 3094 3095 3096 3097 3098 3099 3099 3100 3100 3101 3102 3103 3104 3106 3107 3108 3109 3109 3110 3110 3111 3111 3112 3112 3113 3113 3113 3114 3114 3114 3115 3115 3116 3116 3117 3117 3118 3118 3119 3119 3119 3120 3121 3121 3121 3122 3122 3122 3122 3122 3122 3123 3123 3123 3123 3123 3123 3123 3123 3123 3123 3123 3123 3123 3123 3123 3123 3123 3123 3123 3122 3122 3122 3121 3121 3121 3120 3120 3119 3119 3118 3118 3117 3117 3116 3116 3115 3115 3114 3114
3078 3080 3082 3082 3083 3085 3086 3087 3088 3089 3090 3091 3092 3093 3094 3095 3096 3097 3098 3098 3099 3100 3100 3101 3102 3103 3105 3106 3107 3108 3108 3109 3109 3110 3110 3111 3112 3112 3112 3113 3113 3113 3113 3114 3114 3115 3116 3116 3117 3117 3117 3118 3118 3118 3119 3120 3120 3120 3121 3121 3121 3121 3122 3122 3122 3122 3122 3122 3122 3122 3123 3123 3123 3123 3123 3123 3123 3122 3122 3122 3122 3122 3122 3122 3121 3121 3120 3120 3120 3119 3119 3118 3118 3117 3117 3116 3116 3115 3115 3114 3114 3113 3113
3076 3078 3080 3082 3082 3084 3085 3087 3087 3088 3089 3090 3091 3092 3093 3094 3095 3096 3097 3097 3098 3099 3100 3101 3101 3102 3103 3105 3106 3107 3107 3108 3108 3109 3109 3110 3111 3111 3112 3112 3112 3112 3113 3113 3113 3114 3115 3115 3116 3116 3117 3117 3117 3118 3118 3119 3119 3120 3120 3120 3120 3120 3121 3121 3121 3121 3122 3122 3122 3122 3122 3122 3122 3122 3122 3122 3122 3122 3122 3122 3122 3121 3121 3121 3120 3120 3119 3119 3119 3118 3118 3117 3117 3116 3116 3115 3115 3114 3114 3113 3112 3112 3112
3075 3077 3079 3080 3082 3083 3084 3086 3087 3087 3088 3089 3091 3092 3092 3093 3094 3095 3096 3096 3097 3098 3099 3100 3100 3101 3102 3104 3105 3106 3106 3107 3107 3108 3108 3109 3110 3110 3111 3111 3111 3112 3112 3112 3112 3113 3114 3114 3115 3115 3116 3116 3117 3117 3117 3118 3118 3119 3119 3119 3119 3120 3120 3120 3120 3120 3121 3121 3121 3121 3121 3121 3122 3122 3122 3122 3122 3121 3121 3121 3121 3120 3120 3119 3119 3119 3118 3118 3118 3117 3117 3116 3116 3115 3115 3114 3114 3113 3112 3112 3111 3111 3110
3073 3075 3077 3079 3081 3082 3083 3084 3086 3087 3087 3089 3090 3091 3092 3092 3093 3094 3095 3095 3096 3097 3098 3099 3099 3100 3102 3103 3104 3105 3105 3106 3106 3107 3108 3108 3109 3109 3110 3110 3111 3111 3111 3111 3112 3112 3113 3113 3114 3115 3115 3115 3116 3116 3117 3117 3117 3118 3118 3118 3119 3119 3119 3119 3119 3120 3120 3120 3120 3121 3121 3121 3121 3121 3121 3121 3121 3120 3120 3120 3120 3119 3119 3118 3118 3118 3117 3117 3117 3116 3116 3115 3115 3114 3113 3113 3112 3112 3111 3111 3110 3110 3109
3072 3074 3076 3078 3079 3081 3082 3083 3084 3086 3087 3088 3089 3090 3091 3092 3092 3093 3094 3094 3095 3096 3097 3097 3098 3099 3100 3102 3103 3104 3104 3105 3105 3106 3107 3107 3108 3108 3109 3109 3110 3110 3110 3111 3111 3112 3112 3113 3113 3114 3114 3115 3115 3115 3116 3116 3117 3117 3117 3118 3118 3118 3118 3118 3119 3119 3119 3119 3120 3120 3119 3120 3120 3120 3120 3120 3120 3119 3119 3119 3119 3118 3118 3117 3117 3117 3117 3116 3116 3115 3115 3114 3113 3113 3112 3112 3111 3111 3110 3109 3109 3108 3107
3071 3073 3075 3077 3078 3080 3081 3082 3084 3085 3086 3087 3088 3089 3090 3090 3091 3092 3093 3093 3094 3095 3096 3097 3097 3098 3099 3100 3102 3103 3103 3104 3104 3105 3106 3107 3107 3107 3108 3108 3109 3109 3109 3110 3110 3111 3111 3112 3112 3113 3113 3114 3114 3115 3115 3115 3116 3116 3117 3117 3117 3117 3117 3118 3118 3118 3118 3118 3118 3118 3119 3119 3119 3119 3119 3119 3119 3118 3118 3118 3118 3117 3117 3117 3116 3116 3116 3115 3115 3114 3113 3113 3112 3112 3111 3111 3110 3109 3109 3108 3107 3107 3106
3070 3072 3073 3075 3077 3078 3080 3082 3083 3084 3085 3086 3087 3088 3089 3089 3090 3091 3092 3092 3093 3094 3095 3095 3096 3097 3098 3099 3101 3102 3102 3103 3103 3104 3105 3106 3106 3107 3107 3107 3108 3108 3108 3109 3109 3110 3110 3111 3112 3112 3112 3113 3113 3114 3114 3115 3115 3115 3116 3116 3116 3117 3117 3117 3117 3117 3117 3117 3117 3117 3117 3118 3118 3118 3118 3118 3118 3117 3117 3117 3117 3116 3116 3116 3115 3115 3114 3114 3113 3113 3112 3112 3111 3110 3110 3109 3109 3108 3107 3107 3106 3106 3105
3069 3071 3072 3074 3076 3077 3079 3080 3082 3083 3084 3085 3086 3087 3087 3088 3089 3090 3090 3091 3092 3093 3094 3094 3095 3096 3097 3098 3099 3101 3101 3102 3102 3103 3104 3105 3105 3106 3106 3107 3107 3107 3108 3108 3108 3109 3109 3110 3111 3111 3112 3112 3112 3113 3113 3114 3114 3114 3115 3115 3115 3116 3116 3116 3116 3116 3116 3116 3117 3117 3117 3117 3117 3117 3117 3117 3117 3117 3116 3116 3116 3115 3115 3114 3114 3113 3113 3112 3112 3112 3111 3110 3109 3109 3108 3108 3107 3107 3106 3105 3105 3104 3103
3067 3069 3071 3073 3075 3076 3078 3079 3080 3082 3083 3084 3085 3086 3086 3087 3088 3088 3089 3090 3091 3092 3093 3094 3094 3095 3096 3097 3098 3100 3100 3101 3102 3102 3103 3104 3104 3105 3105 3106 3106 3107 3107 3107 3107 3108 3108 3109 3110 3110 3111 3111 3112 3112 3112 3113 3113 3113 3114 3114 3114 3115 3115 3115 3115 3115 3115 3115 3116 3116 3116 3116 3116 3116 3116 3116 3116 3115 3115 3115 3114 3114 3113 3113 3113 3112 3112 3111 3111 3110 3109 3109 3108 3108 3107 3107 3106 3105 3105 3104 3103 3102 3102
3066 3068 3070 3072 3073 3075 3077 3078 3079 3081 3082 3083 3084 3084 3085 3086 3087 3087 3088 3089 3090 3091 3092 3093 3094 3095 3096 3097 3097 3098 3099 3100 3101 3102 3102 3103 3103 3104 3104 3105 3105 3106 3106 3106 3107 3107 3107 3108 3109 3109 3110 3110 3111 3111 3112 3112 3112 3112 3113 3113 3113 3113 3114 3114 3114 3114 3114 3114 3114 3115 3115 3115 3115 3115 3115 3115 3114 3114 3114 3113 3113 3112 3112 3112 3111 3111 3110 3110 3109 3108 3108 3107 3107 3107 3106 3106 3105 3104 3103 3102 3102 3101 3101
3065 3067 3068 3070 3072 3074 3075 3077 3078 3079 3080 3082 3082 3083 3084 3085 3086 3087 3088 3089 3090 3091 3091 3092 3093 3094 3094 3095 3096 3097 3098 3099 3100 3101 3101 3102 3102 3103 3104 3104 3104 3105 3105 3105 3106 3106 3107 3107 3108 3108 3109 3109 3110 3110 3111 3111 3111 3112 3112 3112 3112 3112 3112 3112 3113 3113 3113 3113 3113 3113 3114 3114 3114 3114 3113 3113 3113 3113 3112 3112 3112 3111 3111 3110 3110 3109 3109 3108 3108 3107 3107 3106 3106 3105 3105 3104 3103 3103 3102 3101 3100 3100 3099
3063 3065 3067 3069 3071 3072 3074 3075 3077 3078 3079 3080 3081 3082 3083 3084 3085 3086 3087 3088 3089 3090 3090 3091 3092 3092 3093 3094 3095 3096 3097 3098 3099 3099 3100 3101 3102 3102 3102 3103 3103 3104 3104 3105 3105 3105 3106 3106 3107 3107 3108 3108 3109 3109 3110 3110 3110 3111 3111 3111 3111 3111 3111 3112 3112 3112 3112 3112 3112 3112 3112 3112 3112 3112 3112 3112 3112 3112 3111 3111 3110 3110 3109 3109 3108 3108 3107 3107 3106 3106 3105 3105 3104 3104 3103 3103 3102 3101 3100 3100 3099 3098 3097
3062 3064 3066 3068 3070 3071 3072 3074 3075 3076 3077 3079 3080 3081 3082 3083 3084 3085 3086 3087 3088 3088 3089 3090 3091 3092 3092 3093 3094 3095 3096 3097 3098 3098 3099 3100 3100 3101 3102 3102 3102 3103 3103 3104 3104 3105 3105 3105 3106 3107 3107 3107 3108 3108 3109 3109 3109 3110 3110 3110 3110 3110 3110 3110 3111 3111 3111 3111 3111 3111 3111 3111 3111 3111 3111 3111 3110 3110 3110 3109 3109 3108 3108 3107 3107 3107 3106 3106 3105 3104 3104 3103 3103 3103 3102 3102 3101 3100 3099 3098 3097 3097 3096
3061 3063 3065 3067 3068 3070 3071 3072 3073 3075 3076 3077 3078 3080 3081 3082 3083 3084 3085 3086 3087 3087 3088 3089 3090 3091 3092 3092 3093 3094 3095 3096 3097 3097 3098 3099 3099 3100 3101 3101 3102 3102 3102 3103 3103 3104 3104 3105 3105 3106 3106 3107 3107 3108 3108 3108 3108 3109 3109 3109 3109 3109 3109 3109 3109 3109 3110 3110 3110 3110 3110 3110 3110 3110 3109 3109 3109 3109 3108 3108 3107 3107 3107 3106 3106 3105 3105 3104 3104 3103 3103 3102 3102 3102 3101 3100 3099 3098 3098 3097 3096 3095 3094
3060 3062 3064 3065 3067 3068 3070 3071 3072 3073 3075 3076 3077 3078 3079 3081 3082 3082 3083 3084 3085 3086 3087 3088 3089 3090 3090 3091 3092 3093 3094 3095 3096 3097 3097 3098 3098 3099 3100 3100 3101 3101 3102 3102 3103 3103 3103 3104 3104 3105 3105 3106 3106 3107 3107 3107 3108 3108 3108 3108 3108 3108 3108 3108 3108 3108 3108 3108 3109 3109 3109 3109 3108 3108 3108 3108 3107 3107 3107 3107 3106 3106 3105 3105 3105 3104 3103 3103 3102 3102 3102 3101 3101 3100 3099 3098 3098 3097 3096 3095 3095 3094 3093
3058 3060 3062 3064 3066 3067 3068 3069 3071 3072 3073 3074 3076 3077 3078 3079 3080 3081 3082 3083 3084 3085 3086 3087 3087 3088 3089 3090 3091 3092 3093 3094 3095 3096 3096 3097 3097 3098 3099 3099 3100 3100 3101 3102 3102 3102 3103 3103 3103 3104 3104 3105 3106 3106 3106 3107 3107 3107 3107 3107 3107 3107 3107 3107 3107 3107 3107 3107 3107 3107 3107 3107 3107 3107 3107 3107 3106 3106 3106 3105 3105 3105 3104 3104 3103 3103 3102 3102 3101 3101 3100 3100 3099 3098 3098 3097 3096 3096 3095 3094 3093 3092 3092
3057 3059 3061 3062 3064 3065 3067 3068 3069 3071 3072 3073 3074 3075 3077 3077 3078 3079 3081 3082 3082 3083 3084 3085 3086 3087 3088 3089 3090 3091 3092 3093 3094 3094 3095 3096 3096 3097 3098 3098 3099 3100 3100 3101 3101 3102 3102 3102 3103 3103 3104 3104 3104 3105 3105 3106 3106 3106 3106 3106 3106 3106 3106 3106 3107 3107 3107 3107 3107 3107 3107 3106 3106 3106 3105 3105 3105 3105 3104 3104 3104 3103 3103 3102 3102 3102 3101 3101 3100 3100 3099 3098 3098 3097 3096 3096 3095 3094 3093 3092 3092 3091 3090
3056 3057 3059 3061 3062 3064 3065 3066 3067 3069 3070 3072 3073 3074 3075 3076 3077 3078 3079 3080 3081 3082 3083 3084 3085 3086 3087 3088 3089 3090 3091 3092 3092 3093 3094 3094 3095 3096 3097 3097 3098 3099 3099 3100 3100 3101 3101 3102 3102 3102 3103 3103 3103 3104 3104 3104 3105 3105 3105 3105 3105 3105 3105 3106 3106 3106 3106 3106 3106 3106 3105 3105 3105 3104 3104 3104 3104 3103 3103 3103 3102 3102 3102 3102 3101 3100 3100 3099 3099 3098 3098 3097 3096 3096 3095 3094 3093 3092 3092 3091 3090 3089 3088
3054 3056 3058 3060 3061 3062 3063 3065 3066 3067 3069 3070 3072 3072 3074 3075 3076 3077 3078 3079 3080 3081 3082 3083 3084 3085 3086 3087 3087 3088 3089 3090 3090 3091 3092 3093 3094 3095 3096 3097 3097 3098 3099 3099 3100 3100 3100 3101 3101 3101 3102 3102 3102 3103 3103 3103 3104 3104 3104 3104 3104 3104 3104 3105 3105 3105 3105 3105 3104 3104 3104 3104 3103 3103 3103 3102 3102 3102 3102 3102 3102 3101 3101 3100 3100 3099 3099 3098 3098 3097 3096 3096 3095 3094 3093 3092 3092 3091 3090 3090 3089 3088 3087
3053 3055 3057 3058 3060 3061 3062 3063 3065 3066 3067 3069 3070 3072 3072 3074 3075 3076 3077 3078 3079 3080 3081 3082 3083 3083 3084 3085 3086 3087 3087 3088 3089 3090 3091 3092 3093 3094 3095 3096 3097 3097 3098 3098 3099 3099 3100 3100 3100 3101 3101 3101 3102 3102 3102 3102 3102 3102 3103 3103 3103 3103 3103 3103 3103 3103 3103 3103 3103 3103 3103 3103 3102 3102 3102 3102 3101 3101 3101 3101 3100 3100 3100 3099 3099 3098 3098 3097 3097 3096 3095 3094 3093 3093 3092 3091 3091 3090 3089 3088 3087 3086 3085
3052 3054 3056 3057 3058 3059 3060 3062 3063 3065 3067 3068 3069 3070 3071 3072 3073 3075 3076 3077 3078 3079 3079 3080 3081 3082 3083 3084 3085 3086 3086 3087 3088 3089 3090 3091 3092 3092 3094 3095 3096 3096 3097 3097 3098 3098 3099 3099 3099 3100 3100 3100 3101 3101 3101 3101 3101 3102 3102 3102 3102 3102 3102 3102 3102 3102 3102 3102 3102 3102 3102 3102 3101 3101 3101 3100 3100 3100 3100 3100 3099 3099 3099 3098 3098 3097 3097 3096 3095 3094 3093 3093 3092 3091 3091 3090 3089 3088 3087 3087 3086 3085 3084
3051 3053 3054 3055 3056 3057 3059 3061 3062 3064 3066 3067 3068 3069 3070 3071 3072 3073 3074 3075 3076 3077 3078 3079 3080 3081 3082 3082 3083 3084 3085 3086 3087 3088 3089 3090 3091 3092 3093 3094 3095 3095 3096 3097 3097 3097 3098 3098 3098 3099 3099 3099 3100 3100 3100 3100 3100 3100 3100 3101 3101 3101 3101 3101 3101 3101 3101 3101 3101 3101 3101 3100 3100 3100 3099 3099 3099 3099 3099 3099 3098 3098 3097 3097 3096 3096 3095 3094 3093 3093 3092 3092 3091 3090 3089 3088 3087 3087 3086 3085 3084 3083 3082
3050 3052 3053 3054 3055 3056 3058 3060 3062 3063 3064 3066 3067 3067 3068 3069 3070 3071 3072 3073 3074 3075 3076 3077 3078 3079 3080 3081 3082 3083 3084 3085 3086 3087 3088 3089 3090 3091 3092 3093 3094 3094 3095 3095 3096 3097 3097 3097 3098 3098 3098 3098 3099 3099 3099 3099 3099 3099 3099 3099 3099 3100 3100 3100 3100 3100 3100 3100 3100 3100 3099 3099 3099 3099 3098 3098 3098 3098 3098 3097 3097 3097 3096 3095 3095 3094 3093 3093 3092 3092 3091 3090 3089 3089 3088 3087 3086 3085 3084 3083 3082 3082 3081
3049 3051 3052 3052 3054 3055 3057 3059 3061 3062 3063 3064 3065 3066 3066 3067 3068 3070 3071 3072 3073 3074 3075 3076 3077 3078 3079 3080 3081 3082 3083 3084 3085 3086 3087 3089 3090 3091 3092 3092 3092 3093 3094 3094 3095 3096 3096 3097 3097 3097 3097 3098 3098 3098 3098 3098 3098 3098 3098 3098 3098 3098 3098 3098 3099 3099 3099 3099 3099 3098 3098 3098 3098 3097 3097 3097 3097 3097 3097 3096 3096 3095 3094 3094 3093 3092 3092 3091 3091 3090 3089 3089 3088 3087 3087 3086 3085 3084 3083 3082 3081 3080 3079
3048 3049 3050 3051 3053 3054 3056 3058 3060 3061 3062 3063 3063 3064 3065 3066 3067 3069 3070 3071 3072 3073 3074 3075 3076 3077 3078 3079 3080 3081 3082 3083 3084 3086 3087 3088 3089 3089 3090 3090 3091 3092 3093 3093 3094 3095 3095 3096 3096 3097 3097 3097 3097 3097 3097 3097 3097 3097 3097 3097 3097 3097 3097 3097 3097 3097 3097 3097 3097 3097 3097 3097 3097 3097 3096 3096 3096 3096 3095 3095 3094 3093 3093 3092 3092 3091 3091 3090 3089 3089 3088 3087 3087 3086 3085 3084 3083 3082 3082 3081 3080 3079 3078
3046 3047 3049 3050 3052 3054 3056 3057 3059 3060 3061 3062 3062 3063 3064 3065 3067 3068 3069 3070 3071 3072 3073 3074 3075 3076 3077 3078 3078 3079 3081 3082 3083 3085 3086 3087 3087 3088 3088 3089 3090 3092 3092 3093 3094 3094 3095 3096 3096 3096 3096 3096 3096 3096 3096 3096 3096 3096 3096 3096 3096 3096 3096 3096 3096 3096 3097 3097 3096 3096 3096 3096 3096 3095 3095 3095 3095 3094 3094 3093 3093 3092 3092 3091 3090 3090 3089 3089 3088 3087 3087 3086 3085 3084 3083 3083 3082 3081 3080 3079 3078 3077 3076
3045 3046 3047 3049 3051 3053 3055 3057 3057 3058 3059 3060 3061 3062 3063 3064 3065 3067 3068 3069 3070 3071 3072 3073 3074 3075 3076 3077 3078 3079 3080 3081 3083 3084 3085 3085 3086 3087 3088 3089 3090 3091 3092 3092 3093 3094 3095 3095 3095 3095 3095 3095 3095 3095 3095 3095 3095 3095 3095 3095 3095 3095 3095 3095 3095 3095 3095 3095 3095 3095 3095 3095 3094 3094 3094 3094 3093 3093 3092 3092 3091 3091 3090 3090 3089 3089 3088 3087 3087 3086 3085 3084 3084 3083 3082 3082 3081 3080 3079 3078 3077 3076 3075
3043 3044 3046 3048 3050 3052 3054 3055 3056 3057 3058 3059 3060 3061 3062 3063 3064 3066 3067 3068 3069 3070 3071 3072 3072 3073 3075 3076 3077 3078 3079 3081 3082 3083 3084 3085 3085 3086 3087 3088 3089 3090 3091 3092 3092 3093 3094 3094 3094 3094 3094 3094 3094 3094 3094 3094 3094 3094 3094 3094 3094 3094 3094 3094 3094 3094 3094 3094 3094 3094 3094 3093 3093 3093 3093 3092 3092 3092 3091 3091 3090 3089 3089 3088 3088 3087 3087 3086 3085 3085 3084 3083 3082 3082 3081 3080 3079 3078 3077 3076 3075 3074 3073
3041 3043 3045 3047 3049 3051 3053 3054 3055 3056 3057 3057 3058 3059 3061 3062 3063 3064 3065 3067 3068 3069 3070 3071 3072 3072 3073 3075 3076 3077 3078 3080 3081 3082 3083 3084 3085 3085 3086 3087 3088 3089 3090 3091 3092 3092 3092 3092 3092 3093 3093 3093 3093 3093 3094 3093 3093 3093 3093 3093 3093 3093 3093 3093 3093 3093 3093 3093 3093 3093 3092 3092 3092 3092 3092 3091 3091 3090 3090 3089 3089 3088 3088 3087 3087 3086 3086 3085 3084 3083 3082 3082 3081 3080 3079 3078 3077 3077 3076 3075 3074 3072 3072
3040 3042 3044 3046 3048 3050 3051 3052 3053 3054 3055 3057 3057 3058 3059 3060 3062 3063 3064 3065 3067 3068 3069 3069 3070 3071 3072 3073 3074 3076 3077 3078 3080 3081 3082 3083 3084 3085 3086 3087 3088 3089 3089 3090 3090 3091 3091 3091 3091 3092 3092 3092 3092 3092 3092 3092 3092 3092 3092 3092 3092 3092 3092 3092 3092 3092 3092 3092 3092 3092 3092 3091 3091 3091 3090 3090 3089 3089 3088 3088 3087 3087 3087 3086 3086 3085 3084 3084 3083 3082 3081 3081 3080 3079 3078 3077 3076 3075 3074 3073 3072 3071 3070
3039 3041 3043 3045 3047 3048 3050 3051 3052 3053 3054 3055 3056 3057 3058 3059 3061 3062 3063 3064 3066 3067 3067 3068 3069 3070 3071 3072 3073 3074 3076 3077 3079 3080 3081 3082 3083 3084 3085 3086 3087 3087 3088 3089 3089 3090 3090 3090 3090 3091 3091 3091 3091 3091 3091 3091 3091 3091 3091 3091 3091 3091 3091 3091 3091 3091 3091 3091 3091 3091 3090 3090 3090 3089 3089 3089 3088 3088 3087 3087 3086 3086 3085 3085 3084 3084 3083 3082 3082 3081 3080 3079 3078 3077 3076 3075 3074 3073 3072 3072 3071 3069 3068
3038 3040 3042 3044 3046 3047 3048 3050 3051 3052 3053 3054 3055 3056 3057 3058 3060 3061 3062 3063 3064 3065 3066 3067 3068 3069 3070 3071 3072 3073 3075 3076 3077 3079 3080 3081 3082 3083 3084 3085 3086 3087 3087 3087 3088 3088 3089 3089 3089 3089 3090 3090 3090 3090 3090 3090 3090 3090 3090 3090 3090 3090 3090 3090 3090 3090 3090 3090 3090 3090 3089 3089 3089 3088 3088 3087 3087 3087 3086 3086 3085 3085 3084 3084 3083 3082 3082 3081 3080 3079 3079 3078 3077 3076 3075 3074 3073 3072 3071 3070 3069 3068 3067
3037 3039 3041 3043 3044 3046 3047 3048 3050 3051 3052 3053 3054 3055 3056 3057 3059 3060 3061 3062 3063 3064 3065 3066 3067 3068 3069 3070 3071 3072 3074 3075 3076 3077 3078 3080 3081 3082 3083 3084 3085 3085 3086 3087 3087 3087 3087 3088 3088 3088 3088 3088 3088 3088 3088 3088 3089 3089 3089 3089 3089 3089 3089 3089 3089 3089 3089 3089 3089 3088 3088 3088 3087 3087 3087 3086 3086 3085 3085 3084 3084 3083 3083 3082 3082 3081 3081 3080 3079 3078 3077 3076 3075 3074 3073 3072 3072 3071 3070 3068 3067 3066 3065